This demonstration page uses our WeatherBlox Daily Observations layout. Learn more.

Left ArrowRight Arrow

38.20091, -84.87328

Hourly Observations for July 10, 2017

Temp ( °F °C ) Dew Point ( °F °C ) Humidity (%) Winds ( mph kmh ) Pressure ( in mb ) Visibility ( mi km ) Precip ( " mm )
12:53 am 00:53 Clear 68 20 63 17.2 84 84 Calm 30.04 1017 10 16 0.00 0.00
1:53 am 01:53 Clear 68 20 62 16.7 81 81 Calm 30.02 1017 10 16 0.00 0.00
2:53 am 02:53 Mostly Cloudy 70 21.1 62 16.7 76 76 S 3 6 30.01 1016 10 16 0.00 0.00
3:53 am 03:53 Partly Cloudy 69 20.6 62 16.7 78 78 SSW 6 9 30.01 1016 10 16 0.00 0.00
4:53 am 04:53 Partly Cloudy 69 20.6 62 16.7 78 78 SSW 5 7 29.99 1016 10 16 0.00 0.00
5:53 am 05:53 Mostly Clear 70 21.1 61 16.1 73 73 S 6 9 30.00 1016 10 16 0.00 0.00
6:53 am 06:53 Mostly Cloudy 69 20.6 62 16.7 78 78 SSW 6 9 30.01 1016 10 16 0.00 0.00
7:53 am 07:53 Sunny 73 22.8 63 17.2 71 71 SSW 9 15 30.01 1016 10 16 0.00 0.00
8:53 am 08:53 Mostly Sunny 75 23.9 64 17.8 69 69 SW 9 15 30.03 1017 10 16 0.00 0.00
9:53 am 09:53 Sunny 79 26.1 66 18.9 65 65 SSW 9 15 30.04 1017 10 16 0.00 0.00
10:53 am 10:53 Sunny 82 27.8 68 20 63 63 SW 10 17 30.03 1017 10 16 0.00 0.00
11:53 am 11:53 Sunny 84 28.9 68 20 59 59 SW 18 30 30.02 1017 10 16 0.00 0.00
12:53 pm 12:53 Mostly Sunny 86 30 68 20 55 55 SW 17 28 30.03 1017 10 16 0.00 0.00
1:53 pm 13:53 Mostly Sunny 86 30 68 20 55 55 SW 15 24 30.01 1016 10 16 0.00 0.00
2:53 pm 14:53 Sunny 86 30 67 19.4 53 53 SW 14 22 29.95 1014 10 16 0.00 0.00
3:53 pm 15:53 Sunny 87 30.6 67 19.4 51 51 SW 16 26 29.95 1014 10 16 0.00 0.00
4:53 pm 16:53 Sunny 85 29.4 67 19.4 55 55 SW 10 17 29.95 1014 10 16 0.00 0.00
5:53 pm 17:53 Sunny 85 29.4 66 18.9 53 53 WSW 9 15 29.94 1014 10 16 0.00 0.00
6:53 pm 18:53 Sunny 84 28.9 66 18.9 55 55 SW 12 19 29.93 1013 10 16 0.00 0.00
7:53 pm 19:53 Sunny 84 28.9 67 19.4 57 57 SW 7 11 29.93 1014 10 16 0.00 0.00
8:53 pm 20:53 Sunny 81 27.2 68 20 65 65 S 8 13 29.93 1014 10 16 0.00 0.00
9:53 pm 21:53 Clear 79 26.1 67 19.4 67 67 S 6 9 29.94 1014 10 16 0.00 0.00
10:53 pm 22:53 Mostly Clear 79 26.1 68 20 69 69 S 10 17 29.96 1014 10 16 0.00 0.00
11:53 pm 23:53 Clear 77 25 67 19.4 71 71 S 8 13 29.96 1015 10 16 0.00 0.00

Powered by AerisWeather